Location: Eimen
(51.8766°N, 9.7806°E)
Time: 17:10:17
(UTC+00:00)

Okean 2 - Pass Details

Date: 23 May 2024
Orbit: 541 x 552 km, 82.5° (Epoch: 23 June)

Event Time Altitude Azimuth Distance (km) Brightness Sun altitude
Exits shadow 00:51:10 26° 189° (S) 1,090 4.2 -14.7°
Maximum altitude 00:53:20 90° 229° (SW) 549 3.2 -14.5°
Drops below altitude 10° 00:57:21 10° 11° (N) 1,819 7.3 -14.3°
Sets 00:59:31 0° 11° (N) 2,717 8.5 -14.1°
